User: anonymous   Login
Location: L�tisburg
(47.3947°N, 9.0820°E)
Time: 18:03:41
(UTC+00:00)
Language:

SL-16 R/B - Orbit

View from above orbital plane
View from above orbital plane
View from above satellite
View from above satellite

Ground track
Ground track

The orbit data is extracted from the following two-line orbital elements,

1 31793U 07029B   21129.17715691 -.00000263  00000-0 -11239-3 0  9995
2 31793  70.9758 282.1267 0002262 263.7140 269.4424 14.14448160715696
Epoch (UTC): 09 May 2021 04:15:06
Eccentricity: 0.0002262
inclination: 70.9758°
perigee height: 842 km
apogee height: 846 km
right ascension of ascending node: 282.1267°
argument of perigee: 263.7140°
revolutions per day: 14.14448160
mean anomaly at epoch: 269.4424°
orbit number at epoch: 71569

The dashed part of the orbit path shows where the satellite is in the earth's shadow,  

DLR